Date,TemperatureHighF,TemperatureAvgF,TemperatureLowF,DewpointHighF,DewpointAvgF,DewpointLowF,HumidityHigh,HumidityAvg,HumidityLow,PressureMaxIn,PressureMinIn,WindSpeedMaxMPH,WindSpeedAvgMPH,GustSpeedMaxMPH,PrecipitationSumIn
2013-1-1,42.3,33.5,26.5,33.2,26.4,22.3,90,76,61,30.65,30.54,8,1,8,0.01
2013-1-2,42.1,36.0,32.6,26.9,24.0,22.1,68,62,53,30.54,30.40,13,3,13,0.00
2013-1-3,40.9,36.6,32.6,30.0,24.2,21.3,71,61,51,30.44,30.33,12,2,12,0.00
2013-1-4,46.1,39.4,36.4,41.0,34.8,30.0,90,83,71,30.54,30.38,4,0,4,0.03
2013-1-5,41.4,37.4,35.5,34.5,32.3,29.4,88,82,72,30.42,30.35,7,0,7,0.02
2013-1-6,44.3,39.6,36.0,41.0,36.1,32.4,91,87,85,30.44,30.25,6,0,6,0.14
2013-1-7,52.6,47.5,44.1,48.9,44.2,40.8,90,88,83,30.40,30.18,12,2,12,0.14
2013-1-8,53.5,49.7,44.1,49.5,45.8,41.1,92,87,76,30.40,30.08,14,2,14,0.05
2013-1-9,51.7,42.5,33.8,44.6,38.0,30.6,89,84,76,30.18,29.89,10,1,10,0.13
2013-1-10,41.4,36.6,31.9,36.9,33.4,29.1,90,88,83,30.30,30.17,3,0,3,0.08
2013-1-11,40.7,32.5,26.6,34.8,28.7,23.2,91,86,71,30.51,30.29,6,0,6,0.00
2013-1-12,34.7,29.4,25.2,30.7,26.3,22.2,90,88,84,30.60,30.49,2,0,2,0.00
2013-1-13,32.8,29.2,27.0,28.5,25.7,24.0,89,87,82,30.69,30.58,3,0,3,0.00
2013-1-14,33.7,31.5,29.0,30.3,27.8,25.0,89,86,83,30.76,30.68,3,0,3,0.01
2013-1-15,40.0,35.8,33.3,36.4,32.5,30.3,90,88,84,30.86,30.75,3,0,3,0.01
2013-1-16,37.1,35.0,33.7,33.7,31.7,30.4,89,88,86,30.84,30.68,3,0,3,0.00
2013-1-17,44.3,35.0,29.0,37.6,31.2,25.6,90,86,76,30.69,30.51,4,0,4,0.00
2013-1-18,43.7,31.7,26.6,37.4,28.0,23.9,90,86,77,30.53,30.46,3,0,3,0.00
2013-1-19,42.3,32.2,27.2,37.2,28.8,24.4,90,87,81,30.54,30.46,2,0,2,0.01
2013-1-20,44.8,32.3,25.7,36.8,28.0,23.0,90,84,72,30.56,30.43,2,0,2,0.00
2013-1-21,44.6,30.8,23.4,35.1,25.9,20.3,89,82,68,30.47,30.35,4,0,4,0.00
2013-1-22,43.9,31.4,22.3,33.9,25.7,18.7,88,80,62,30.35,30.14,4,0,4,0.01
2013-1-23,37.4,34.7,33.1,32.0,29.6,26.8,89,82,73,30.40,30.09,3,0,3,0.23
2013-1-24,41.6,36.5,34.4,37.8,33.4,31.4,90,89,87,30.42,30.30,2,0,2,0.00
2013-1-25,49.5,44.1,40.5,46.7,41.5,38.1,91,91,88,30.28,30.15,2,0,2,0.07
2013-1-26,46.6,41.2,36.4,42.3,38.0,33.4,92,88,81,30.29,30.11,10,0,10,0.10
2013-1-27,43.0,39.9,36.9,39.5,36.8,33.9,91,89,86,30.35,30.24,4,0,4,0.06
2013-1-28,44.6,41.4,38.2,41.7,38.7,35.5,92,90,88,30.40,30.27,3,0,3,0.30
2013-1-29,49.0,44.9,41.8,45.9,42.2,39.3,93,90,87,30.66,30.39,7,1,7,0.05
2013-1-30,51.8,47.2,43.6,46.8,43.4,40.2,89,87,82,30.65,30.60,8,2,8,0.00
2013-1-31,54.2,48.2,44.3,48.6,44.1,41.6,92,86,75,30.64,30.52,5,0,5,0.00
2013-2-1,54.4,46.6,37.1,46.6,42.2,33.5,91,85,73,30.56,30.45,5,0,5,0.02
2013-2-2,56.5,41.8,31.0,46.4,36.6,28.2,92,83,64,30.51,30.44,4,1,4,0.00
2013-2-3,46.4,41.3,33.8,42.9,38.2,30.2,91,89,86,30.53,30.42,2,0,2,0.00
2013-2-4,53.1,45.9,41.4,46.2,41.6,37.4,91,85,73,30.43,30.13,4,0,4,0.00
2013-2-5,52.0,45.9,40.9,45.2,41.5,37.5,90,85,75,30.23,30.10,10,2,10,0.05
2013-2-6,50.9,46.2,41.8,42.8,40.6,38.2,89,81,72,30.28,30.04,10,2,10,0.06
2013-2-7,51.1,42.1,33.5,40.6,36.6,30.0,88,81,64,30.34,30.09,7,1,7,0.27
2013-2-8,49.3,37.8,28.4,41.9,33.3,25.4,90,84,71,30.48,30.34,5,0,5,0.00
2013-2-9,45.4,40.5,33.7,41.6,37.2,30.2,89,88,85,30.49,30.44,3,0,3,0.01
2013-2-10,47.9,43.1,38.5,41.5,38.5,35.6,91,84,76,30.54,30.48,5,0,5,0.00
2013-2-11,47.5,44.1,40.9,41.0,38.5,35.7,85,81,77,30.57,30.51,7,1,7,0.00
2013-2-12,56.0,49.1,44.1,48.2,43.6,39.9,88,81,68,30.66,30.57,6,1,6,0.00
2013-2-13,55.6,49.3,45.0,47.9,43.3,39.3,86,80,71,30.70,30.59,5,1,5,0.00
2013-2-14,55.3,46.5,37.6,46.5,40.6,34.0,88,80,71,30.75,30.69,5,0,5,0.00
2013-2-15,63.0,49.4,40.0,48.4,42.2,36.4,89,77,56,30.69,30.38,8,0,8,0.00
2013-2-16,53.3,43.7,36.4,46.9,39.3,32.7,89,85,78,30.48,30.39,6,0,6,0.06
2013-2-17,50.8,41.2,34.0,40.6,34.4,30.4,90,78,54,30.49,30.28,5,0,5,0.00
2013-2-18,48.1,40.8,33.8,38.4,34.7,30.0,89,79,65,30.29,29.93,8,1,8,0.05
2013-2-19,55.1,44.2,34.4,41.9,36.6,29.3,88,76,53,30.19,29.88,8,1,8,0.03
2013-2-20,48.6,40.0,32.6,40.6,34.7,28.0,87,81,70,30.28,30.19,6,1,6,0.02
2013-2-21,46.3,41.7,36.0,39.6,37.1,32.4,89,84,76,30.37,30.27,10,1,10,0.03
2013-2-22,47.2,43.1,35.8,43.5,39.1,32.2,89,85,80,30.35,30.07,14,2,14,0.54
2013-2-23,48.4,40.0,34.0,41.6,35.4,29.9,90,84,71,30.63,30.25,7,1,7,0.14
2013-2-24,52.7,43.5,34.7,39.9,35.5,30.9,89,74,54,30.62,30.23,10,1,10,0.00
2013-2-25,50.4,42.2,33.1,41.8,36.0,28.9,86,79,58,30.57,30.19,10,2,10,0.14
2013-2-26,50.8,40.2,29.7,40.6,33.9,26.0,89,79,60,30.59,30.43,8,1,8,0.00
2013-2-27,52.6,47.0,42.1,43.7,40.2,36.1,87,77,69,30.51,30.41,6,1,6,0.09
2013-2-28,58.3,52.2,46.6,52.4,47.9,43.0,90,85,80,30.62,30.37,8,2,8,0.06
2013-3-1,61.6,55.0,50.2,52.2,48.6,45.4,86,79,67,30.63,30.51,7,1,7,0.00
2013-3-2,57.8,49.6,38.3,49.7,44.0,33.7,88,81,70,30.51,30.34,9,1,9,0.01
2013-3-3,51.8,40.1,29.9,40.2,33.8,26.2,89,79,60,30.51,30.44,8,0,8,0.01
2013-3-4,58.3,42.2,28.6,36.6,30.0,24.8,89,65,36,30.44,30.10,10,1,10,0.01
2013-3-5,48.4,41.4,34.9,42.5,36.2,27.6,88,82,71,30.10,29.84,8,1,8,0.31
2013-3-6,44.8,42.7,40.5,41.5,39.3,37.1,89,88,85,30.15,29.73,8,1,8,0.29
2013-3-7,56.9,45.3,35.8,43.3,36.8,30.7,90,74,51,30.25,30.14,6,1,6,0.00
2013-3-8,60.3,44.4,30.6,42.7,34.5,26.9,89,70,41,30.41,30.22,5,1,5,0.00
2013-3-9,59.8,44.5,29.9,43.2,35.0,25.4,86,71,46,30.68,30.40,6,1,6,0.00
2013-3-10,51.3,43.7,35.1,42.3,37.5,30.1,85,79,69,30.69,30.61,3,0,3,0.00
2013-3-11,56.9,50.0,43.9,48.2,44.0,39.5,86,80,71,30.61,30.42,5,0,5,0.00
2013-3-12,63.0,53.6,45.9,50.0,46.0,42.6,88,76,59,30.42,30.33,8,1,8,0.00
2013-3-13,66.1,55.6,47.2,51.2,46.3,42.3,84,72,54,30.41,30.28,6,1,6,0.00
2013-3-14,60.5,53.1,46.4,49.1,44.8,41.6,87,74,51,30.39,30.23,6,1,6,0.00
2013-3-15,65.0,54.1,45.0,52.0,46.5,40.1,86,76,57,30.42,30.35,6,1,6,0.02
2013-3-16,54.0,46.4,38.9,46.6,41.0,33.5,88,81,71,30.37,30.21,10,1,10,0.08
2013-3-17,54.2,43.8,35.3,41.3,34.7,30.9,87,71,51,30.48,30.32,9,2,9,0.00
2013-3-18,57.4,44.0,32.0,41.1,34.9,27.6,86,71,51,30.48,30.35,6,1,6,0.00
2013-3-19,52.6,43.9,37.4,43.4,38.0,32.2,90,80,59,30.35,29.84,5,0,5,0.62
2013-3-20,54.7,48.6,39.6,48.9,42.4,32.9,91,79,62,30.35,29.71,15,4,15,0.35
2013-3-21,51.7,42.5,37.3,40.5,34.9,30.8,86,75,56,30.50,30.35,10,2,10,0.08
2013-3-22,50.9,39.2,32.2,38.9,33.0,28.5,88,79,58,30.59,30.48,8,1,8,0.03
2013-3-23,51.5,40.7,32.9,39.4,32.2,29.1,87,73,48,30.58,30.46,5,0,5,0.00
2013-3-24,58.0,45.7,34.6,38.5,32.8,28.4,83,63,41,30.46,30.28,10,1,10,0.00
2013-3-25,63.0,50.1,38.9,43.0,36.5,30.2,79,61,39,30.28,30.09,6,1,6,0.00
2013-3-26,55.1,47.4,39.6,46.1,41.1,34.3,85,79,69,30.22,30.15,3,0,3,0.00
2013-3-27,67.3,53.7,41.6,49.2,44.3,37.6,88,72,46,30.18,30.08,7,1,7,0.00
2013-3-28,67.0,54.7,43.9,52.6,45.7,39.7,88,73,52,30.32,30.18,6,0,6,0.00
2013-3-29,71.3,58.0,47.9,53.2,47.6,42.0,87,70,47,30.40,30.32,6,1,6,0.00
2013-3-30,77.9,59.9,42.5,52.7,46.4,38.0,87,63,40,30.38,30.16,8,1,8,0.00
2013-3-31,75.2,60.6,44.3,58.1,48.2,38.6,85,65,45,30.19,30.09,7,1,7,0.00
2013-4-1,68.4,58.6,45.0,52.9,47.7,40.1,86,68,54,30.30,30.19,8,1,8,0.00
2013-4-2,66.8,58.1,49.1,51.2,47.6,43.0,81,69,54,30.40,30.31,6,1,6,0.00
2013-4-3,67.0,54.8,41.6,52.6,46.6,36.9,86,75,59,30.36,30.10,6,0,6,0.00
2013-4-4,61.0,55.9,52.7,55.6,50.4,47.3,88,82,74,30.10,29.88,9,2,9,0.21
2013-4-5,59.6,54.2,50.9,51.5,48.3,46.8,88,81,69,30.13,29.99,11,2,11,0.20
2013-4-6,58.7,51.0,46.1,48.3,44.8,42.0,89,80,64,30.17,29.89,10,2,10,0.54
2013-4-7,53.3,48.4,41.4,46.5,42.2,35.9,90,79,65,30.15,29.72,12,3,12,0.25
2013-4-8,58.1,48.3,40.3,46.8,40.8,35.8,87,76,61,30.48,30.15,6,1,7,0.02
2013-4-9,59.0,49.5,37.6,46.5,41.1,33.2,86,74,57,30.56,30.43,5,0,5,0.00
2013-4-10,61.7,53.8,46.6,53.7,45.0,37.1,85,72,56,30.53,30.29,11,2,11,0.03
2013-4-11,59.9,49.6,38.5,47.4,39.9,33.7,86,70,54,30.54,30.37,8,1,8,0.01
2013-4-12,55.8,46.4,34.9,43.8,38.1,30.3,84,73,59,30.37,30.04,8,1,8,0.00
2013-4-13,53.5,45.4,37.3,41.0,36.1,33.0,86,71,56,30.28,30.10,12,2,12,0.07
2013-4-14,56.9,44.9,37.1,42.9,37.4,31.6,85,75,51,30.27,30.13,7,1,7,0.03
2013-4-15,59.2,47.9,35.8,44.4,36.6,31.4,87,67,43,30.37,30.14,9,1,9,0.00
2013-4-16,62.6,50.4,35.6,45.3,37.1,30.2,85,62,36,30.59,30.37,9,1,9,0.00
2013-4-17,63.2,49.4,34.7,43.4,37.6,29.3,83,65,45,30.68,30.59,6,1,6,0.00
2013-4-18,61.9,52.8,45.7,46.4,42.3,38.1,83,68,52,30.67,30.50,6,1,6,0.09
2013-4-19,60.8,53.7,49.3,51.9,46.5,42.0,87,77,63,30.50,30.34,9,2,9,0.18
2013-4-20,61.2,54.0,45.9,46.0,43.4,38.3,84,68,53,30.53,30.45,7,1,7,0.00
2013-4-21,57.8,50.9,43.4,48.1,42.6,36.8,78,73,66,30.51,30.44,5,0,5,0.00
2013-4-22,67.3,53.4,36.9,47.9,36.6,28.3,88,57,26,30.63,30.51,10,1,10,0.00
2013-4-23,72.0,56.2,38.2,43.8,35.2,29.6,72,48,28,30.57,30.34,8,1,8,0.00
2013-4-24,76.9,59.9,37.6,43.8,35.2,29.3,77,43,21,30.45,30.21,8,1,8,0.00
2013-4-25,79.7,62.6,42.3,47.6,41.0,33.7,75,48,28,30.35,30.21,6,1,6,0.00
2013-4-26,81.4,63.1,42.1,51.4,43.2,35.4,81,52,25,30.43,30.35,6,1,6,0.00
2013-4-27,76.9,60.4,43.6,49.1,43.0,36.3,78,55,26,30.45,30.38,8,1,8,0.00
2013-4-28,70.4,60.1,50.9,50.2,43.5,37.2,78,56,33,30.45,30.27,10,2,10,0.00
2013-4-29,62.5,53.8,41.2,47.0,39.1,30.4,82,59,34,30.43,30.24,11,3,11,0.06
2013-4-30,61.6,48.1,37.8,43.0,34.2,29.5,78,60,35,30.64,30.43,9,1,9,0.03
2013-5-1,72.7,54.6,33.1,42.0,34.8,26.6,82,51,28,30.71,30.63,8,1,8,0.01
2013-5-2,83.5,63.7,40.5,46.7,38.0,31.7,73,43,19,30.65,30.44,8,1,8,0.00
2013-5-3,83.3,65.8,43.7,47.6,41.0,33.1,70,43,25,30.48,30.32,8,1,8,0.00
2013-5-4,85.3,69.7,46.4,53.2,39.0,30.6,74,37,17,30.33,30.09,14,2,14,0.00
2013-5-5,86.4,71.7,51.7,51.4,40.2,35.9,64,35,18,30.10,29.89,13,2,13,0.00
2013-5-6,86.9,69.6,51.1,54.7,48.8,41.1,73,50,30,30.07,29.93,6,1,6,0.00
2013-5-7,79.7,65.2,49.7,56.0,49.8,42.6,80,59,41,30.22,30.06,6,1,6,0.00
2013-5-8,72.9,60.7,51.5,54.4,49.1,43.8,78,66,50,30.34,30.22,5,1,5,0.00
2013-5-9,82.1,64.7,47.3,58.2,51.0,42.3,86,64,41,30.39,30.25,6,1,6,0.00
2013-5-10,88.6,71.5,51.3,59.3,53.4,45.2,82,56,29,30.38,30.27,5,1,5,0.00
2013-5-11,88.2,73.4,59.2,60.9,55.0,48.3,70,54,37,30.37,30.17,6,1,6,0.00
2013-5-12,72.7,65.4,58.7,58.6,54.9,51.8,85,70,56,30.31,30.25,6,1,6,0.10
2013-5-13,70.4,59.4,49.3,56.5,50.4,41.1,88,73,51,30.42,30.22,13,2,13,0.02
2013-5-14,71.5,58.2,41.8,51.0,41.9,36.1,85,58,29,30.43,30.29,7,1,7,0.00
2013-5-15,61.9,55.7,49.1,50.4,46.4,40.5,79,71,64,30.30,30.21,7,1,7,0.02
2013-5-16,65.5,57.7,51.3,56.7,51.5,46.1,86,80,68,30.21,30.13,6,0,6,0.19
2013-5-17,67.0,56.5,43.6,55.3,47.3,40.0,89,72,52,30.29,30.17,8,1,8,0.02
2013-5-18,60.5,53.8,46.1,52.1,47.8,40.5,88,80,67,30.47,30.29,4,0,4,0.19
2013-5-19,70.4,58.6,49.0,51.8,48.1,41.1,89,70,47,30.59,30.46,7,1,7,0.00
2013-5-20,75.2,58.9,43.6,52.2,46.4,38.1,85,65,40,30.53,30.10,6,1,6,0.00
2013-5-21,61.7,51.4,43.9,49.1,43.9,39.1,84,76,57,30.17,30.01,11,1,11,0.24
2013-5-22,51.3,46.5,42.8,46.9,42.3,38.0,88,85,83,30.17,30.11,8,2,8,0.65
2013-5-23,55.4,49.5,45.7,48.0,45.1,42.4,88,85,74,30.20,30.14,10,2,10,0.00
2013-5-24,61.0,53.1,47.5,52.4,46.8,44.0,88,80,67,30.28,30.15,12,2,12,0.00
2013-5-25,70.0,58.6,49.1,51.5,48.0,44.5,87,69,49,30.27,30.12,9,1,9,0.00
2013-5-26,69.3,60.0,53.6,56.1,49.8,45.8,86,70,50,30.22,30.14,11,2,11,0.12
2013-5-27,67.0,56.8,51.5,58.5,49.8,45.6,89,78,63,30.18,29.93,10,2,10,0.46
2013-5-28,66.6,58.3,51.5,54.4,47.4,43.7,84,68,50,30.12,29.96,9,2,9,0.07
2013-5-29,67.9,57.9,50.9,55.6,48.4,42.1,88,72,53,30.25,29.82,12,3,12,0.36
2013-5-30,65.5,56.6,49.7,51.0,47.2,42.9,81,71,55,30.44,30.25,7,1,7,0.02
2013-5-31,72.4,61.1,48.6,54.0,47.3,43.7,85,62,43,30.52,30.42,8,1,8,0.00
2013-6-1,79.6,62.3,46.4,57.3,49.5,40.9,83,65,43,30.43,30.21,7,1,7,0.00
2013-6-2,76.5,64.5,53.5,56.3,50.4,45.1,79,62,42,30.28,30.22,10,2,10,0.00
2013-6-3,79.2,63.6,45.9,57.0,49.3,40.4,84,62,45,30.31,30.22,7,1,7,0.00
2013-6-4,88.7,69.5,46.6,58.6,50.5,39.8,81,54,28,30.27,30.15,6,1,6,0.00
2013-6-5,87.7,73.4,53.8,60.9,53.9,45.7,77,52,35,30.27,30.16,6,1,6,0.00
2013-6-6,88.0,72.0,54.5,62.7,53.3,39.0,79,54,37,30.25,30.16,8,1,8,0.00
2013-6-7,83.0,68.2,50.8,58.2,47.8,40.1,73,50,29,30.35,30.24,6,1,6,0.00
2013-6-8,82.8,66.7,47.2,53.5,47.8,41.0,82,53,33,30.37,30.24,6,1,6,0.00
2013-6-9,78.8,62.8,49.7,53.6,46.3,41.2,78,57,37,30.30,30.18,10,2,10,0.00
2013-6-10,75.4,61.1,44.3,50.6,44.0,37.2,80,55,38,30.23,30.09,7,2,7,0.00
2013-6-11,71.5,60.1,52.2,51.7,44.8,41.3,75,58,42,30.34,30.18,8,2,8,0.00
2013-6-12,67.3,58.1,51.1,53.1,48.1,41.8,84,70,53,30.37,30.32,5,1,5,0.56
2013-6-13,63.4,56.3,50.0,55.6,50.7,45.9,86,82,72,30.48,30.35,5,1,5,0.51
2013-6-14,70.0,58.6,46.3,54.2,49.3,42.7,88,73,53,30.48,30.18,6,1,6,0.00
2013-6-15,82.4,67.1,47.0,58.4,51.9,42.6,88,61,39,30.19,30.08,6,1,6,0.00
2013-6-16,78.1,65.1,53.1,59.0,53.3,46.6,81,67,49,30.29,30.19,5,1,5,0.00
2013-6-17,80.5,67.9,54.4,56.9,51.8,47.6,81,58,38,30.29,30.12,8,2,8,0.00
2013-6-18,73.3,62.9,51.5,54.2,48.6,45.1,82,61,44,30.20,30.13,8,2,8,0.00
2013-6-19,70.6,60.2,50.2,54.0,48.2,43.1,81,65,47,30.28,30.14,10,1,10,0.01
2013-6-20,75.1,62.3,53.5,53.8,49.6,46.2,81,65,42,30.33,30.23,10,1,10,0.03
2013-6-21,75.2,63.7,54.7,52.8,50.0,46.0,76,62,44,30.36,30.31,6,1,6,0.00
2013-6-22,83.0,68.8,49.5,59.0,50.0,44.3,88,55,28,30.31,30.03,7,1,7,0.00
2013-6-23,72.2,65.7,60.5,60.8,56.4,51.2,86,72,57,30.04,29.83,5,1,5,0.13
2013-6-24,70.2,61.7,55.6,58.1,54.1,50.5,87,77,59,29.91,29.82,10,1,10,0.11
2013-6-25,70.2,62.7,56.9,60.1,55.8,52.2,88,79,65,30.05,29.86,8,1,8,0.14
2013-6-26,75.6,65.5,58.5,60.3,56.9,53.6,88,75,55,30.23,30.04,7,1,7,0.02
2013-6-27,83.0,70.8,61.0,63.8,60.2,56.5,87,71,49,30.35,30.20,8,1,8,0.02
2013-6-28,94.5,74.4,58.7,68.0,61.7,54.8,90,67,39,30.34,30.19,6,1,6,0.00
2013-6-29,92.7,80.7,63.2,64.8,61.5,55.4,77,54,38,30.29,30.14,7,1,7,0.00
2013-6-30,99.2,82.0,61.2,68.1,62.7,55.4,84,55,31,30.17,30.00,7,1,7,0.00
2013-7-1,96.5,81.9,66.1,69.9,63.3,57.3,76,55,39,30.19,30.08,6,1,6,0.00
2013-7-2,91.8,77.7,62.5,67.0,58.9,48.8,76,54,26,30.26,30.19,8,1,8,0.00
2013-7-3,90.2,72.7,56.5,56.5,50.5,42.1,76,49,27,30.33,30.20,9,1,9,0.00
2013-7-4,80.5,66.9,51.8,56.2,49.9,43.8,78,56,40,30.34,30.23,12,2,12,0.00
2013-7-5,78.5,65.5,52.0,56.5,51.0,44.2,77,61,46,30.26,30.12,9,1,9,0.00
2013-7-6,81.9,65.9,50.2,59.5,52.4,43.9,82,63,46,30.17,30.03,9,1,9,0.00
2013-7-7,83.0,68.9,52.9,61.2,54.3,46.3,81,61,47,30.17,30.06,7,1,7,0.00
2013-7-8,87.1,69.2,50.9,61.6,53.9,45.0,82,60,40,30.28,30.17,6,1,6,0.00
2013-7-9,93.2,76.6,57.1,64.7,57.9,50.0,84,55,35,30.26,30.15,7,1,7,0.00
2013-7-10,85.7,71.5,54.9,59.5,52.3,43.8,76,52,33,30.26,30.12,10,2,10,0.00
2013-7-11,80.8,66.4,50.2,52.9,47.9,42.0,75,53,35,30.27,30.15,10,2,10,0.00
2013-7-12,77.8,65.0,48.2,53.8,47.6,40.4,78,55,38,30.30,30.19,7,1,7,0.00
2013-7-13,85.0,68.0,47.3,53.7,47.3,40.4,78,51,26,30.35,30.22,8,1,8,0.00
2013-7-14,91.8,73.1,52.2,57.6,48.8,38.5,77,46,23,30.28,30.14,10,1,10,0.00
2013-7-15,90.4,72.8,52.4,56.9,48.9,38.4,74,45,30,30.20,29.99,9,1,9,0.00
2013-7-16,93.6,75.1,56.5,60.5,53.4,45.0,71,49,30,30.16,29.95,5,1,5,0.00
2013-7-17,81.2,68.2,58.7,59.1,54.0,50.2,76,62,43,30.36,30.16,6,1,6,0.00
2013-7-18,86.4,69.3,52.7,62.8,54.8,47.3,84,62,39,30.39,30.25,7,1,7,0.00
2013-7-19,88.2,69.9,53.3,64.3,55.7,47.0,80,62,42,30.34,30.17,8,1,8,0.00
2013-7-20,85.7,67.3,52.4,63.9,54.2,46.3,81,64,46,30.27,30.12,6,1,6,0.00
2013-7-21,85.9,67.7,50.6,63.5,54.3,44.9,82,64,46,30.18,30.07,8,1,8,0.00
2013-7-22,86.0,69.9,53.1,62.5,55.5,48.0,83,62,42,30.24,30.13,8,1,8,0.00
2013-7-23,93.1,75.0,55.6,67.3,58.5,50.1,85,59,34,30.23,30.10,6,1,6,0.00
2013-7-24,94.5,76.7,56.5,64.9,56.9,49.3,81,53,32,30.22,30.13,8,1,8,0.00
2013-7-25,94.3,75.9,55.3,61.5,54.0,47.3,76,50,30,30.27,30.19,6,1,6,0.00
2013-7-26,95.0,74.0,53.1,59.3,49.9,40.8,73,45,27,30.34,30.23,10,2,10,0.00
2013-7-27,84.8,69.0,51.5,55.2,48.3,41.4,76,50,30,30.38,30.19,8,2,8,0.00
2013-7-28,79.2,63.5,49.3,56.4,49.4,42.2,78,61,45,30.25,30.16,7,1,7,0.00
2013-7-29,81.2,67.4,54.5,58.8,52.3,45.7,73,60,42,30.20,30.11,7,1,7,0.00
2013-7-30,85.7,69.3,55.4,61.3,55.3,48.6,81,63,40,30.33,30.20,6,1,6,0.00
2013-7-31,83.5,69.6,55.6,62.0,55.7,49.7,82,63,47,30.30,30.18,5,1,7,0.00
2013-8-1,69.3,63.2,58.5,56.0,53.1,50.2,80,70,61,30.30,30.23,4,1,4,0.00
2013-8-2,76.3,66.0,57.1,56.3,53.6,49.9,79,65,47,30.34,30.28,4,0,4,0.00
2013-8-3,85.3,68.8,53.6,63.3,56.0,48.5,84,66,44,30.30,30.16,7,1,7,0.00
2013-8-4,92.3,75.4,56.5,65.7,59.1,51.0,85,59,39,30.21,30.07,6,1,6,0.00
2013-8-5,93.1,77.2,59.2,65.5,58.8,45.9,83,55,38,30.19,30.07,7,1,7,0.00
2013-8-6,95.2,76.3,54.2,58.8,51.4,43.7,71,44,23,30.18,30.06,9,1,9,0.00
2013-8-7,90.7,73.0,56.0,59.8,53.6,47.0,76,53,32,30.21,30.12,8,1,8,0.00
2013-8-8,86.6,71.4,59.8,64.5,56.6,50.9,75,61,47,30.24,30.08,6,1,6,0.00
2013-8-9,83.7,71.8,58.9,62.0,56.0,49.1,73,58,43,30.13,30.03,5,1,5,0.00
2013-8-10,85.9,72.4,59.8,64.4,59.4,53.6,82,65,47,30.22,30.07,7,1,7,0.02
2013-8-11,78.1,67.1,60.1,61.6,56.9,53.1,80,70,55,30.26,30.17,5,1,5,0.00
2013-8-12,82.4,68.8,56.9,60.8,55.7,50.0,84,65,42,30.25,30.18,7,1,7,0.00
2013-8-13,88.4,71.9,54.2,59.5,54.2,47.6,82,56,30,30.29,30.09,6,1,6,0.00
2013-8-14,63.9,60.4,57.8,52.6,51.3,50.0,76,72,66,30.14,30.13,1,0,1,0.00
2013-8-20,86.8,76.4,61.7,59.0,53.8,49.2,65,47,32,30.32,30.17,6,1,6,0.00
2013-8-21,93.2,73.0,52.0,60.3,52.9,45.1,79,53,29,30.20,30.02,7,1,7,0.00
2013-8-22,86.6,72.0,55.8,60.5,54.8,48.0,76,56,38,30.09,30.01,5,1,5,0.00
2013-8-23,78.1,67.0,58.1,60.4,56.6,52.6,85,70,50,30.14,30.05,8,1,8,0.01
2013-8-24,78.8,67.8,60.5,61.0,55.9,51.1,83,67,47,30.11,30.04,6,1,6,0.00
2013-8-25,72.9,64.1,54.2,61.1,55.0,48.2,82,73,58,30.12,30.08,4,0,4,0.01
2013-8-26,81.0,67.9,59.0,64.0,55.9,51.4,85,68,39,30.16,30.07,9,1,9,0.25
2013-8-27,83.0,71.0,61.6,67.4,60.2,56.7,87,70,49,30.16,29.98,6,1,6,0.11
2013-8-28,83.5,71.7,59.6,65.7,60.6,55.4,89,69,49,30.09,30.02,5,1,5,0.01
2013-8-29,79.4,70.0,65.0,67.6,63.1,60.6,88,79,61,30.25,30.03,10,1,10,0.01
2013-8-30,83.7,70.8,60.1,68.8,60.1,53.7,89,71,46,30.33,30.22,7,1,7,0.01
2013-8-31,89.8,72.6,54.0,64.1,57.7,49.9,90,62,38,30.23,29.98,5,1,5,0.00
2013-9-1,85.3,71.8,57.8,61.7,55.7,52.1,83,59,37,30.09,29.96,7,1,7,0.00
2013-9-2,79.2,65.1,62.5,63.4,55.6,54.2,76,72,56,30.08,30.05,2,0,2,0.00
2013-9-29,55.4,54.2,49.7,52.8,50.8,45.9,91,89,83,29.82,29.54,14,4,14,1.55
2013-9-30,59.6,53.3,49.7,53.7,48.5,45.6,90,84,69,30.18,29.77,9,2,9,0.45
2013-10-1,60.5,51.4,42.7,51.8,46.1,38.7,90,82,63,30.38,30.15,12,1,12,0.55
2013-10-2,56.3,47.7,42.1,49.4,43.6,38.3,90,86,75,30.37,30.25,5,0,5,0.24
2013-10-3,58.9,48.8,41.6,50.2,44.0,37.6,91,84,69,30.61,30.37,3,0,3,0.00
2013-10-4,65.7,50.9,40.1,53.6,45.1,36.5,90,81,63,30.64,30.52,5,0,5,0.00
2013-10-5,72.5,53.6,38.5,53.6,45.1,35.3,91,75,47,30.53,30.32,5,0,5,0.01
2013-10-6,72.4,55.1,40.7,55.5,44.8,37.1,88,71,41,30.32,30.14,7,1,7,0.00
2013-10-7,63.4,56.5,50.8,51.5,47.4,43.1,88,72,56,30.32,30.16,9,2,9,0.05
2013-10-8,58.9,51.4,42.3,52.2,45.6,38.3,87,81,68,30.34,30.17,8,1,8,0.05
2013-10-9,64.1,49.5,37.3,48.8,42.1,33.5,90,77,50,30.29,30.14,8,0,8,0.01
2013-10-10,62.3,52.8,45.0,49.9,46.3,40.3,86,79,59,30.28,30.14,5,0,5,0.00
2013-10-11,61.6,52.0,44.5,49.1,44.6,40.4,87,77,59,30.33,30.27,3,0,3,0.00
2013-10-12,58.9,50.8,41.9,49.5,44.6,37.7,86,79,68,30.36,30.25,4,0,4,0.00
2013-10-13,64.6,49.5,38.5,52.2,43.1,34.9,90,79,62,30.50,30.35,5,0,5,0.01
2013-10-14,68.2,50.9,37.8,50.6,42.0,34.2,89,73,47,30.55,30.47,6,0,6,0.00
2013-10-15,69.5,51.7,36.9,46.8,40.7,33.0,88,69,39,30.53,30.32,10,0,10,0.00
2013-10-16,67.0,51.5,39.6,50.1,42.9,35.2,87,74,49,30.34,30.28,5,0,5,0.00
2013-10-17,67.3,50.8,38.0,52.2,43.6,34.0,88,77,55,30.43,30.33,4,0,4,0.00
2013-10-18,72.2,52.9,38.0,50.2,42.4,34.3,89,70,38,30.36,30.26,5,0,5,0.00
2013-10-19,69.3,51.0,36.9,51.1,42.5,32.6,87,74,50,30.33,30.27,4,0,4,0.00
2013-10-20,68.0,50.2,37.6,53.4,43.3,33.6,88,78,55,30.33,30.24,3,0,3,0.00
2013-10-21,75.2,53.7,38.0,55.8,45.3,34.4,89,75,49,30.28,30.16,4,0,4,0.00
2013-10-22,77.6,56.3,40.7,55.1,46.3,36.8,88,72,42,30.22,30.13,6,0,6,0.02
2013-10-23,74.0,54.6,40.7,55.9,46.1,36.3,88,74,51,30.19,30.11,4,0,4,0.00
2013-10-24,69.8,53.4,41.0,54.0,45.8,37.1,88,77,55,30.28,30.17,3,0,3,0.00
2013-10-25,56.0,51.2,45.4,50.1,46.6,40.9,88,84,80,30.45,30.28,2,0,2,0.01
2013-10-26,57.4,51.0,43.6,49.0,45.4,39.3,87,81,73,30.48,30.35,4,0,4,0.00
2013-10-27,59.4,50.6,45.4,51.8,44.9,40.1,87,81,64,30.37,30.03,7,1,7,0.09
2013-10-28,59.8,47.4,36.5,46.0,36.7,30.6,89,69,38,30.12,30.01,9,1,9,0.00
2013-10-29,60.7,43.2,31.3,42.1,33.2,26.8,86,70,41,30.24,30.11,5,0,5,0.00
2013-10-30,57.6,43.9,30.6,43.7,35.8,26.1,86,74,54,30.37,30.24,4,0,4,0.02
2013-10-31,61.9,53.6,48.2,51.4,46.4,43.1,84,76,67,30.46,30.33,4,0,4,0.00
2013-11-1,61.9,53.3,46.1,52.2,47.7,41.6,88,82,69,30.47,30.09,4,0,4,0.18
2013-11-2,57.1,51.0,42.8,49.4,44.2,38.2,89,78,57,30.25,29.90,10,2,10,0.47
2013-11-3,52.6,45.4,38.5,44.8,39.9,34.9,89,81,69,30.34,30.23,5,1,5,0.03
2013-11-4,49.9,46.9,43.9,45.9,43.1,40.0,89,87,85,30.36,30.28,6,0,6,0.32
2013-11-5,55.1,50.9,48.1,51.0,47.4,44.7,90,88,84,30.44,30.26,6,1,6,0.12
2013-11-6,53.6,51.1,48.8,50.5,48.2,46.0,91,90,88,30.48,30.26,3,0,3,0.39
2013-11-7,56.0,51.5,46.8,52.7,47.3,43.0,92,86,74,30.30,30.04,11,2,11,0.36
2013-11-8,54.0,47.6,42.5,47.9,43.8,39.5,90,87,77,30.38,30.30,3,0,3,0.01
2013-11-9,51.7,45.5,39.2,46.4,41.9,36.5,91,87,81,30.31,30.23,2,0,2,0.02
2013-11-10,59.8,49.4,42.8,50.2,44.4,39.7,91,83,67,30.28,30.22,4,0,4,0.00
2013-11-11,60.8,50.0,39.2,47.0,41.0,36.5,91,73,53,30.34,30.21,13,2,13,0.00
2013-11-12,56.5,51.0,47.0,52.4,47.0,40.2,90,86,74,30.61,30.25,5,0,5,0.25
2013-11-13,56.7,50.3,45.4,50.6,46.6,42.6,90,87,79,30.67,30.48,5,0,5,0.00
2013-11-14,53.1,46.5,42.3,47.4,43.0,39.3,91,87,78,30.48,30.29,3,0,3,0.03
2013-11-15,49.0,44.1,38.5,45.1,40.8,35.8,91,88,83,30.30,29.71,10,1,10,0.04
2013-11-16,51.1,46.7,43.0,44.8,41.0,38.8,88,80,70,30.04,29.70,8,1,8,0.03
2013-11-17,54.4,49.5,44.6,46.6,43.7,40.0,86,81,75,30.17,30.03,9,2,9,0.00
2013-11-18,51.7,50.7,49.9,48.3,45.3,42.8,89,82,75,30.15,29.89,12,3,12,0.31
2013-11-19,52.2,47.7,34.2,49.1,43.2,29.8,89,85,76,30.22,29.88,8,1,8,0.27
2013-11-20,47.9,35.7,28.1,36.4,29.2,24.3,89,78,61,30.59,30.21,5,0,5,0.00
2013-11-21,48.6,35.1,27.2,28.2,23.5,20.2,82,65,37,30.76,30.59,7,0,7,0.00
2013-11-22,50.0,36.6,23.4,29.8,20.3,15.0,83,56,32,30.76,30.58,14,2,14,0.01
2013-11-23,53.3,43.5,33.1,24.0,20.5,17.2,66,41,28,30.59,30.36,10,1,10,0.00
2013-11-24,53.3,36.2,27.0,32.6,25.2,20.1,78,65,43,30.47,30.34,4,0,4,0.00
2013-11-25,51.8,35.7,25.9,35.1,27.0,20.6,82,71,50,30.53,30.46,2,0,2,0.00
2013-11-26,48.4,38.3,28.4,36.4,30.1,23.2,83,73,60,30.48,30.26,3,0,3,0.00
2013-11-27,55.3,41.4,31.0,40.0,31.4,26.3,85,69,46,30.26,30.15,2,0,5,0.00
2013-11-28,54.0,37.6,28.6,39.7,30.0,23.8,84,74,55,30.39,30.21,2,0,2,0.00
2013-11-29,45.7,37.4,28.6,37.9,31.9,24.1,85,81,73,30.56,30.39,4,0,4,0.01
2013-11-30,50.8,45.0,40.0,44.1,40.1,35.3,87,83,76,30.58,30.38,2,0,2,0.07
2013-12-1,56.9,52.7,46.4,51.8,48.8,42.9,90,87,81,30.38,30.09,9,2,9,0.63
2013-12-2,50.6,42.4,32.0,47.1,37.1,27.8,88,82,60,30.24,30.09,8,1,8,0.06
2013-12-3,43.9,35.7,26.8,36.0,27.5,20.4,88,74,46,30.48,30.23,9,1,9,0.00
2013-12-4,34.7,25.8,21.8,25.9,18.9,14.7,85,75,59,30.53,30.45,6,0,6,0.00
2013-12-5,34.6,26.4,18.4,24.1,16.6,12.9,81,67,53,30.49,30.34,6,0,6,0.00
2013-12-6,30.6,27.4,24.8,18.3,13.8,8.8,75,57,48,30.34,30.17,19,3,19,0.00
2013-12-7,31.0,23.9,14.8,9.0,5.1,2.4,62,45,33,30.62,30.29,13,2,13,0.00
2013-12-8,29.9,19.5,11.7,15.8,9.7,3.9,75,66,51,30.78,30.61,4,0,4,0.00
2013-12-9,29.5,23.2,14.4,21.2,15.5,8.4,79,72,64,30.80,30.72,2,0,2,0.00
2013-12-10,36.7,29.9,24.8,27.9,23.3,19.9,81,77,69,30.73,30.58,3,0,3,0.00
2013-12-11,41.0,29.0,22.3,33.0,23.8,17.6,86,81,71,30.59,30.39,3,0,3,0.00
2013-12-12,24.5,23.6,22.9,20.1,19.4,18.5,85,84,83,30.40,30.38,1,0,1,0.00
2013-12-13,43.6,40.8,36.5,40.6,37.8,33.1,90,89,87,30.63,30.51,2,0,2,0.00
2013-12-14,42.1,40.0,38.5,39.4,37.3,35.8,91,90,89,30.65,30.56,3,0,3,0.01
2013-12-15,45.4,41.2,38.3,42.0,38.4,35.6,91,90,87,30.68,30.60,2,0,2,0.00
2013-12-16,47.2,41.1,37.8,43.4,38.2,35.1,91,89,86,30.66,30.44,4,0,4,0.01
2013-12-17,39.2,37.5,36.0,36.5,34.8,33.2,91,90,89,30.44,30.37,2,0,2,0.00
2013-12-18,42.5,37.4,29.2,39.0,34.4,25.9,91,89,87,30.37,30.24,4,0,4,0.02
2013-12-19,40.3,32.0,25.9,35.5,28.5,23.1,91,87,80,30.51,30.30,2,0,2,0.01
2013-12-20,42.3,36.8,32.4,39.6,33.9,29.5,90,89,87,30.42,30.07,5,1,5,0.10
2013-12-21,51.3,44.8,41.4,47.6,41.9,38.7,92,90,85,30.41,30.11,3,0,3,0.08
2013-12-22,54.4,47.7,44.6,48.8,44.3,41.9,91,88,80,30.54,30.40,6,0,6,0.01
2013-12-23,53.5,45.7,34.7,49.1,42.5,31.7,91,89,83,30.73,30.47,7,1,7,0.09
2013-12-24,43.0,35.9,32.0,40.3,33.2,29.5,91,90,88,30.80,30.68,4,0,4,0.01
2013-12-25,41.2,35.8,31.3,37.5,32.9,28.5,90,89,86,30.68,30.58,2,0,3,0.00
2013-12-26,37.8,34.4,32.4,34.8,31.6,29.9,91,90,87,30.59,30.42,2,0,2,0.00
2013-12-27,36.2,33.8,31.9,33.2,31.2,28.9,91,90,89,30.59,30.39,2,0,2,0.00
2013-12-28,46.3,38.6,33.3,41.5,35.3,30.7,90,88,82,30.69,30.59,2,0,2,0.00
2013-12-29,41.6,38.1,33.3,37.6,34.9,30.3,90,89,86,30.65,30.48,2,0,2,0.00
2013-12-30,42.8,38.6,34.9,38.9,35.5,32.0,91,88,85,30.48,30.38,4,0,5,0.00
2013-12-31,49.7,42.3,36.4,45.0,39.0,32.8,91,88,82,30.54,30.41,2,0,2,0.04
2014-1-1,47.7,40.5,36.4,44.0,37.6,33.1,91,89,85,30.56,30.44,4,0,4,0.00
2014-1-2,42.1,39.6,37.1,39.4,36.9,34.4,91,90,89,30.45,30.22,3,0,3,0.05